Regional Weather Roundup
Issued by NWS

Home | Current Version | Previous Version | Graphics & Text | Print | Product List | Glossary On
Versions: 1 2 3 4 5 6 7 8 9 10 11 12 13 14 15 16 17 18 19 20 21 22 23 24 25 26 27 28 29 30 31 32 33 34 35 36 37 38 39 40 41 42 43 44 45 46 47 48 49 50
000
ASUS43 KBIS 260201
RWRND

NORTH DAKOTA REGIONAL WEATHER ROUNDUP
NATIONAL WEATHER SERVICE BISMARCK ND
900 PM CDT MON MAY 25 2015

NOTE: "FAIR" INDICATES FEW OR NO CLOUDS BELOW 12,000 FEET WITH NO
SIGNIFICANT WEATHER AND/OR OBSTRUCTIONS TO VISIBILITY.


NDZ001>003-009>011-017-260300-
NORTHWEST NORTH DAKOTA

CITY           SKY/WX    TMP DP  RH WIND       PRES   REMARKS
WILLISTON      PTCLDY    63  50  62 SW10      29.87S
MINOT          PTCLDY    69  46  43 S7        29.80S
MINOT AFB      PTCLDY    74  44  34 SW7       29.79S
$$

NDZ018>021-031>035-040>046-260300-
SOUTHWEST NORTH DAKOTA

CITY           SKY/WX    TMP DP  RH WIND       PRES   REMARKS
BISMARCK       MOCLDY    65  56  72 W10       29.85S
DICKINSON      PTCLDY    57  47  69 SW8       29.88S
GARRISON         N/A     69  50  50 NW13      29.84R
HETTINGER ARPT CLOUDY    58  49  72 S6        29.92S
$$

NDZ004>008-012>016-024-026-027-054-260300-
NORTHEAST NORTH DAKOTA

CITY           SKY/WX    TMP DP  RH WIND       PRES   REMARKS
GRAND FORKS    PTCLDY    64  51  62 S8        29.78S
GRND FRKS AFB  PTCLDY    67  49  53 SW10      29.79R
DEVILS LAKE    MOCLDY    72  41  33 S5        29.77S
$$

NDZ022-023-025-028>030-036>039-047>053-260300-
SOUTHEAST NORTH DAKOTA

CITY           SKY/WX    TMP DP  RH WIND       PRES   REMARKS
FARGO          CLOUDY    61  55  81 E3        29.82S
JAMESTOWN      PTCLDY    63  56  78 S10       29.82R
$$



USA.gov is the U.S. government's official web portal to all federal, state and local government web resources and services.